Time,TemperatureF,DewpointF,PressureIn,WindDirection,WindDirectionDegrees,WindSpeedMPH,WindSpeedGustMPH,Humidity,HourlyPrecipIn,Conditions,Clouds,dailyrainin,SoftwareType,DateUTC
2013-09-29 00:02:00,-999.0,-99.9,29.87,SSW,204,0.0,-999.0,-999,-99.99,,,-99.99,,2013-09-29 04:02:00,
2013-09-29 00:14:00,65.0,55.0,29.87,SSW,204,0.0,-999.0,70,-99.99,,,-99.99,,2013-09-29 04:14:00,
2013-09-29 00:24:00,65.0,55.0,29.87,SE,144,0.0,-999.0,70,-99.99,,,-99.99,,2013-09-29 04:24:00,
2013-09-29 00:54:00,65.0,55.0,29.87,SSE,150,0.0,-999.0,70,-99.99,,,-99.99,,2013-09-29 04:54:00,
2013-09-29 01:14:00,65.0,55.0,29.86,East,100,0.0,-999.0,70,-99.99,,,-99.99,,2013-09-29 05:14:00,
2013-09-29 01:22:00,65.0,55.0,29.86,ESE,117,0.0,-999.0,70,-99.99,,,-99.99,,2013-09-29 05:22:00,
2013-09-29 01:52:00,65.0,55.0,29.85,East,92,0.0,-999.0,71,-99.99,,,-99.99,,2013-09-29 05:52:00,
2013-09-29 11:54:00,60.0,56.0,29.93,ESE,109,0.0,-999.0,86,-99.99,,,-99.99,,2013-09-29 15:54:00,
2013-09-29 12:14:00,61.0,56.0,29.93,NNE,30,0.0,-999.0,85,-99.99,,,-99.99,,2013-09-29 16:14:00,
2013-09-29 12:24:00,63.0,57.0,29.93,NNE,28,0.0,-999.0,82,-99.99,,,-99.99,,2013-09-29 16:24:00,
2013-09-29 12:44:00,64.0,57.0,29.93,East,99,0.0,-999.0,78,-99.99,,,-99.99,,2013-09-29 16:44:00,
2013-09-29 12:54:00,63.0,57.0,29.93,NE,45,0.0,-999.0,80,-99.99,,,-99.99,,2013-09-29 16:54:00,
2013-09-29 13:13:00,63.0,56.0,29.93,NNE,20,0.0,-999.0,77,-99.99,,,-99.99,,2013-09-29 17:13:00,
2013-09-29 13:24:00,66.0,57.0,29.93,SE,130,0.0,-999.0,72,-99.99,,,-99.99,,2013-09-29 17:24:00,
2013-09-29 13:52:00,67.0,56.0,29.93,SSE,159,0.0,-999.0,67,-99.99,,,-99.99,,2013-09-29 17:52:00,
2013-09-29 14:13:00,67.0,56.0,29.93,North,5,0.0,-999.0,68,-99.99,,,-99.99,,2013-09-29 18:13:00,
2013-09-29 14:22:00,68.0,55.0,29.93,NE,36,0.0,-999.0,64,-99.99,,,-99.99,,2013-09-29 18:22:00,
2013-09-29 15:11:00,70.0,55.0,29.92,ENE,70,0.0,-999.0,60,-99.99,,,-99.99,,2013-09-29 19:11:00,
2013-09-29 15:22:00,70.0,53.0,29.91,NE,53,0.0,-999.0,55,-99.99,,,-99.99,,2013-09-29 19:22:00,
2013-09-29 15:52:00,70.0,54.0,29.91,NNE,22,0.0,-999.0,57,-99.99,,,-99.99,,2013-09-29 19:52:00,
2013-09-29 16:12:00,69.0,54.0,29.91,NE,46,0.0,-999.0,58,-99.99,,,-99.99,,2013-09-29 20:12:00,
2013-09-29 16:22:00,70.0,54.0,29.91,NE,52,0.0,-999.0,57,-99.99,,,-99.99,,2013-09-29 20:22:00,
2013-09-29 16:52:00,71.0,54.0,29.90,NNE,24,0.0,-999.0,55,-99.99,,,-99.99,,2013-09-29 20:52:00,
2013-09-29 17:11:00,71.0,54.0,29.90,East,91,0.0,-999.0,55,-99.99,,,-99.99,,2013-09-29 21:11:00,
2013-09-29 17:22:00,71.0,54.0,29.90,SW,221,0.0,-999.0,54,-99.99,,,-99.99,,2013-09-29 21:22:00,
2013-09-29 17:44:00,71.0,54.0,29.90,NNW,332,0.0,-999.0,54,-99.99,,,-99.99,,2013-09-29 21:44:00,
2013-09-29 17:54:00,71.0,54.0,29.90,NNW,336,0.0,-999.0,56,-99.99,,,-99.99,,2013-09-29 21:54:00,
2013-09-29 18:24:00,70.0,53.0,29.90,NNW,335,0.0,-999.0,55,-99.99,,,-99.99,,2013-09-29 22:24:00,
2013-09-29 18:53:00,69.0,55.0,29.90,NNW,335,0.0,-999.0,61,-99.99,,,-99.99,,2013-09-29 22:53:00,
2013-09-29 19:12:00,68.0,54.0,29.90,NNW,335,0.0,-999.0,60,-99.99,,,-99.99,,2013-09-29 23:12:00,
2013-09-29 19:23:00,66.0,53.0,29.91,NNW,335,0.0,-999.0,63,-99.99,,,-99.99,,2013-09-29 23:23:00,
2013-09-29 19:53:00,62.0,52.0,29.91,NNW,335,0.0,-999.0,71,-99.99,,,-99.99,,2013-09-29 23:53:00,
2013-09-29 20:22:00,59.0,52.0,29.91,NNW,335,0.0,-999.0,77,-99.99,,,-99.99,,2013-09-30 00:22:00,
2013-09-29 20:42:00,57.0,51.0,29.91,NNW,335,0.0,-999.0,79,-99.99,,,-99.99,,2013-09-30 00:42:00,
2013-09-29 20:52:00,56.0,50.0,29.91,NNW,335,0.0,-999.0,81,-99.99,,,-99.99,,2013-09-30 00:52:00,
2013-09-29 21:11:00,55.0,50.0,29.92,NNW,335,0.0,-999.0,83,-99.99,,,-99.99,,2013-09-30 01:11:00,
2013-09-29 21:22:00,54.0,50.0,29.91,NNW,335,0.0,-999.0,87,-99.99,,,-99.99,,2013-09-30 01:22:00,
2013-09-29 21:42:00,54.0,51.0,29.92,NNW,335,0.0,-999.0,90,-99.99,,,-99.99,,2013-09-30 01:42:00,
2013-09-29 21:52:00,54.0,51.0,29.92,NNW,335,0.0,-999.0,91,-99.99,,,-99.99,,2013-09-30 01:52:00,
2013-09-29 22:12:00,53.0,51.0,29.91,NNW,335,0.0,-999.0,92,-99.99,,,-99.99,,2013-09-30 02:12:00,
2013-09-29 22:22:00,52.0,50.0,29.91,NNW,335,0.0,-999.0,92,-99.99,,,-99.99,,2013-09-30 02:22:00,
2013-09-29 22:42:00,52.0,50.0,29.92,NNW,335,0.0,-999.0,93,-99.99,,,-99.99,,2013-09-30 02:42:00,
2013-09-29 22:52:00,52.0,50.0,29.92,NNW,335,0.0,-999.0,93,-99.99,,,-99.99,,2013-09-30 02:52:00,
2013-09-29 23:12:00,51.0,49.0,29.92,NNW,335,0.0,-999.0,93,-99.99,,,-99.99,,2013-09-30 03:12:00,
2013-09-29 23:22:00,51.0,49.0,29.92,NNW,335,0.0,-999.0,93,-99.99,,,-99.99,,2013-09-30 03:22:00,
2013-09-29 23:55:00,51.0,49.0,29.93,NNW,335,0.0,-999.0,94,-99.99,,,-99.99,,2013-09-30 03:55:00,